Location: Casilda
(33.0440°S, 61.1680°W)
Time: 18:41:24
(UTC-03:00)

ISS - Pass Details

Date: 24 March 2023
Orbit: 413 x 421 km, 51.6° (Epoch: 30 March)

Event Time Altitude Azimuth Distance (km) Brightness Sun altitude
Exits shadow 06:07:20 17° 230° (SW) 1,169 -1.9 -14.1°
Maximum altitude 06:08:04 18° 213° (SSW) 1,129 -1.8 -13.9°
Drops below altitude 10° 06:10:31 10° 168° (SSE) 1,530 -0.7 -13.4°
Sets 06:13:07 0° 147° (SSE) 2,403 0.7 -12.9°
